Location: The Stocker AstroScience Center
(25.7579°N, 80.3725°W)
Time: 13:54:36
(UTC-04:00)

ISS - All Passes

Search period start: 23 July 2014 00:00
Search period end: 02 August 2014 00:00
Orbit: 411 x 419 km, 51.6° (Epoch: 23 July)

Date Brightness Start Highest point End Pass type
(mag) Time Alt. Az. Time Alt. Az. Time Alt. Az.
23 Jul - 00:31:12 10° SSE 00:33:09 15° SE 00:35:06 10° E night (unlit)
23 Jul - 02:06:44 10° WSW 02:09:38 27° NW 02:12:34 10° NNE night (unlit)
23 Jul - 10:17:50 10° NW 10:21:11 83° NE 10:24:31 10° SE daylight
24 Jul - 01:17:33 10° SW 01:20:50 58° NW 01:24:08 10° NNE night (unlit)
24 Jul - 09:29:16 10° NNW 09:32:24 37° NE 09:35:31 10° ESE daylight
24 Jul - 11:07:58 10° WSW 11:08:48 11° SW 11:09:38 10° SW daylight
25 Jul - 00:28:49 10° SSW 00:32:05 60° SE 00:35:23 10° NE night (unlit)
25 Jul - 08:41:03 10° N 08:43:33 19° NE 08:46:03 10° E daylight
25 Jul - 10:17:30 10° WNW 10:20:11 22° SW 10:22:50 10° S daylight
25 Jul - 23:40:34 10° S 23:43:24 26° SE 23:46:15 10° ENE night (unlit)
26 Jul - 01:17:50 10° W 01:20:05 17° NW 01:22:21 10° N night (unlit)
26 Jul - 07:53:40 10° NNE 07:54:37 11° NE 07:55:33 10° NE daylight
26 Jul - 09:28:16 10° NW 09:31:30 49° SW 09:34:44 10° SSE daylight
26 Jul - 22:53:13 10° SSE 22:54:46 13° SE 22:56:20 10° E night (unlit)
27 Jul - 00:28:12 10° WSW 00:31:13 31° NW 00:34:14 10° NNE night (unlit)
27 Jul - 08:39:26 10° NW 08:42:46 71° NE 08:46:05 10° SE daylight
27 Jul - 23:39:06 10° SW 23:42:24 68° NW 23:45:44 10° NE night (unlit)
28 Jul - 07:50:55 10° NNW 07:53:58 32° NE 07:57:00 10° ESE daylight
28 Jul - 09:28:55 10° W 09:30:24 12° SW 09:31:53 10° SSW daylight
28 Jul - 22:50:27 10° SSW 22:53:40 50° SE 22:56:55 10° NE night (unlit)
29 Jul - 00:29:50 10° NW 00:30:34 11° NW 00:31:19 10° NNW night (unlit)
29 Jul - 07:02:46 10° N 07:05:05 17° NE 07:07:24 10° E daylight
29 Jul - 08:38:56 10° WNW 08:41:46 26° SW 08:44:35 10° S daylight
29 Jul - 22:02:18 10° S 22:04:59 23° SE 22:07:41 10° ENE night (unlit)
29 Jul - 23:39:11 10° W 23:41:37 19° NW 23:44:04 10° N night (unlit)
30 Jul - 07:49:46 10° NW 07:53:04 58° SW 07:56:21 10° SSE daylight
30 Jul - 21:15:23 10° SE 21:16:21 11° SE 21:17:19 10° ESE night (unlit)
30 Jul - 22:49:40 10° WSW 22:52:45 36° NW 22:55:51 10° NNE night (unlit)
31 Jul - 07:01:00 10° NNW 07:04:19 60° NE 07:07:37 10° SE daylight
31 Jul - 22:00:38 10° SW 22:03:57 81° NW 22:07:17 10° NE visible
01 Aug - 06:12:32 10° NNW 06:15:29 28° NE 06:18:26 10° ESE visible
01 Aug - 07:50:04 10° W 07:51:58 14° SW 07:53:52 10° SSW daylight
01 Aug - 21:12:04 10° SSW 21:15:13 42° SE 21:18:23 10° NE visible
01 Aug - 22:50:46 10° WNW 22:52:04 12° NW 22:53:22 10° NNW visible
